HULIANWANG DIGUI 12D

Last updated on Mon Oct 20 2025 00:02:08 GMT+0000 (Coordinated Universal Time)

1 65998U 25231D 25291.38454485 -.00000110 00000+0 25641-4 0 9994 2 65998 50.0006 348.3712 0006297 272.3214 87.6970 14.05648072 333
UTC large
Height (km)
Speed (km/s)
/
Latitude / Longitude
Inclination (degrees)
Orbital Period (minutes)
Azimuth
Elevation
Range (km)
Doppler Factor

Next 0 passes for location: London (51.5072 / 0.1276)

Sorry there are no passes over London.